User: anonymous   Login
Location: Unspecified
(0.0000°N, 0.0000°E)
Time: 19:31:23
(UTC+00:00)
Language:

STARLINK-2684 - Orbit

View from above orbital plane
View from above orbital plane
View from above satellite
View from above satellite

Ground track
Ground track

The orbit is defined by the following mean orbital elements,

1 48471U          26145.41897507 +.00000000 +00000-0 +43373-3 0 00009
2 48471  53.1577 194.1737 0000990  93.3202 266.7913 15.31716520    08
Epoch (UTC): 25 May 2026 10:03:19
Eccentricity: 0.0000990
inclination: 53.1577°
perigee height: 470 km
apogee height: 471 km
right ascension of ascending node: 194.1737°
argument of perigee: 93.3202°
revolutions per day: 15.31716520
mean anomaly at epoch: 266.7913°

The dashed part of the orbit path shows where the satellite is in the earth's shadow,  

DLR